Regional Weather Roundup
Issued by NWS

Home | Current Version | Previous Version | Graphics & Text | Print | Product List | Glossary On
Versions: 1 2 3 4 5 6 7 8 9 10 11 12 13 14 15 16 17 18 19 20 21 22 23 24 25 26 27 28 29 30 31 32 33 34 35 36 37 38 39 40 41 42 43 44 45 46 47 48 49 50
000
ASUS45 KCYS 270910
RWRWY

WYOMING REGIONAL WEATHER ROUNDUP
NATIONAL WEATHER SERVICE CHEYENNE WY
200 AM MST FRI FEB 27 2015

NOTE:  "FAIR" INDICATES FEW OR NO CLOUDS BELOW 12,000 FEET
WITH NO SIGNIFICANT WEATHER AND/OR OBSTRUCTIONS TO VISIBILITY.

WYZ001-271000-
YELLOWSTONE NATIONAL PARK

CITY           SKY/WX    TMP DP  RH WIND       PRES   REMARKS
LK YELLOWSTONE   N/A    -11 -16  78 CALM      29.83F
W YELLOWSTONE  NOT AVBL

$$
WYZ002>013-054>058-071-098>099-271000-
NORTHERN WYOMING

CITY           SKY/WX    TMP DP  RH WIND       PRES   REMARKS
JACKSON        CLOUDY    10   7  85 NW6       29.87S WCI   1
CODY           FAIR       3   1  92 S7        29.96F WCI  -9
GREYBULL       CLOUDY    17   8  67 CALM      30.06F
WORLAND        FAIR       8   0  69 S9        30.05F WCI  -5
SHERIDAN       FAIR     -10 -16  74 CALM      30.07F
BUFFALO        FAIR       3  -1  83 S21       29.99F WCI -18
GILLETTE       FAIR       1  -5  75 S16       30.11F WCI -19
HULETT         FAIR       0  -6  78 CALM      30.15F
NEWCASTLE      FAIR       1  -8  66 MISG      30.20F

$$
WYZ014>020-022>026-101>103-271000-
CENTRAL WYOMING

CITY           SKY/WX    TMP DP  RH WIND       PRES   REMARKS
BIG PINEY      CLOUDY    10   4  76 S5        29.90S WCI   2
PINEDALE       FLURRIES  10   5  79 CALM      29.89F
DUBOIS         FAIR       0  -6  78 CALM      29.85F
LANDER         CLOUDY     0  -4  83 CALM      29.98F
RIVERTON       FAIR      -3  -7  82 NW9       29.99F WCI -19
CASPER         CLOUDY     1  -4  79 N3        30.01F
DOUGLAS        FAIR       4   0  83 SE18      30.07F WCI -16

$$
WYZ021-027>030-104>119-271000-
SOUTHERN WYOMING

CITY           SKY/WX    TMP DP  RH WIND       PRES   REMARKS
EVANSTON       CLOUDY    15  12  88 E10       29.84F WCI   2
FORT BRIDGER   CLOUDY    11  10  94 NE6       29.90S WCI   2
ROCK SPRINGS   FAIR       3  -1  83 E7        29.91S WCI  -9
DIXON          FAIR      10   6  82 SW3       29.90S
RAWLINS        FAIR       2  -3  80 NE9       29.89F WCI -13
SARATOGA       FLURRIES  -2  -6  84 W3        29.88S
LARAMIE        FAIR       0  -4  83 SE17      29.86F WCI -21
CHEYENNE       CLOUDY     3  -2  79 SE10      30.00F WCI -12
TORRINGTON     LGT SNOW   6   1  80 SE14      30.19F WCI -11
PINE BLUFFS    CLOUDY     5   1  85 MISG      30.11F

$$



USA.gov is the U.S. government's official web portal to all federal, state and local government web resources and services.